Regional Weather Roundup
Issued by NWS Albany, NY

Home | Current Version | Previous Version | Graphics & Text | Print | Product List | Glossary On
Versions: 1 2 3 4 5 6 7 8 9 10 11 12 13 14 15 16 17 18 19 20 21 22 23 24 25 26 27 28 29 30 31 32 33 34 35 36 37 38 39 40 41 42 43 44 45 46 47 48 49 50
593
ASUS41 KALY 181910
RWRALY

NEW YORK STATE HOURLY WEATHER ROUNDUP
NATIONAL WEATHER SERVICE ALBANY NY
200 PM EST SAT NOV 18 2017

NOTE: "FAIR" INDICATES FEW OR NO CLOUDS BELOW 12,000 FEET WITH NO
SIGNIFICANT WEATHER AND/OR NO OBSTRUCTIONS TO VISIBILITY.

NYZ032-033-038>043-046>054-057>066-NYZ062>081-082-084-182000-
EAST


CITY           SKY/WX    TMP DP  RH WIND       PRES   REMARKS
ALBANY         CLOUDY    42  25  50 S13G25    29.65F
GLENS FALLS    CLOUDY    35  25  66 CALM      29.67F
POUGHKEEPSIE   LGT RAIN  42  34  73 VRB3      29.70F
NEWBURGH       LGT RAIN  41  37  87 SW5       29.71F
MONTGOMERY     LGT RAIN  38  34  85 NE3       29.69F
WHITE PLAINS   LGT RAIN  48  38  68 S10       29.70F
ISLIP          CLOUDY    54  42  64 S13       29.75F
NEW YORK CITY  LGT RAIN  51  38  60 S13G20    29.71F
CENTRAL PARK   CLOUDY    50  36  58 VRB3      29.73F
$$

NYZ005>009-017-018-044>046-055-056-182000-
CENTRAL


CITY           SKY/WX    TMP DP  RH WIND       PRES   REMARKS
FULTON         CLOUDY    43  31  62 SE5       29.52F
SYRACUSE       CLOUDY    47  34  60 S8        29.52F
ROME           CLOUDY    37  25  61 SE8       29.59F WCI  31
ELMIRA         LGT RAIN  44  39  82 SW8       29.54F
BINGHAMTON     LGT RAIN  38  35  89 S9        29.57S WCI  31
MONTICELLO     LGT RAIN  35  33  92 SE7       29.66F WCI  29
$$

NYZ026>034-041>043-087-182000-
NORTH


CITY           SKY/WX    TMP DP  RH WIND       PRES   REMARKS
WATERTOWN      CLOUDY    44  30  57 S7G16     29.50F
FORT DRUM      NOT AVBL
OGDENSBURG     CLOUDY    35  27  74 NE3       29.53S
MASSENA        CLOUDY    36  26  67 E7        29.56F WCI  30
SARANAC LAKE   CLOUDY    34  26  72 CALM      29.50F
PLATTSBURGH    CLOUDY    36  21  54 S7        29.59F WCI  30
$$

NYZ001>004-010>016-019>021-085-182000-
WEST


CITY           SKY/WX    TMP DP  RH WIND       PRES   REMARKS
NIAGARA FALLS  CLOUDY    49  44  83 S7        29.40F HAZE
BUFFALO        CLOUDY    48  44  86 S12       29.41F
DUNKIRK        CLOUDY    48  44  86 S13G22    29.40F
JAMESTOWN      CLOUDY    43  42  97 S10       29.41F
WELLSVILLE     CLOUDY    44  39  82 S13G22    29.47F
ROCHESTER      CLOUDY    49  42  77 SW10      29.46F
PENN YAN       CLOUDY    45  35  68 S10G20    29.50F
$$

             KEY
       WCI = WIND CHILL INDEX
       VSB = VISIBILITY
       HX  = HEAT INDEX
$$




USA.gov is the U.S. government's official web portal to all federal, state and local government web resources and services.